DW8923 Weather Reports


time (UTC)temp
C
wind
direction
speed
KPH
gust
KPH
rain 1hr
cm
rain 24hr
cm
rain mn
cm
humidity
%
barometer
mb
20260505051523 21 205 6.4 19.3 0.00 0.00 0.00 85 1007.2
20260505041517 22 166 8.0 14.5 0.00 0.00 0.00 82 1007.3
20260505040016 22 159 4.8 17.7 0.00 0.00 0.00 81 1007.3
20260505034518 22 145 6.4 19.3 0.00 0.00 0.00 80 1007.4
20260505033028 23 144 6.4 14.5 0.00 0.00 0.00 79 1007.3
20260505031515 23 121 6.4 16.1 0.00 0.00 0.00 78 1007.2
20260505030013 23 146 3.2 16.1 0.00 0.00 0.00 76 1007.2
20260505024529 23 225 4.8 12.9 0.00 0.00 0.00 74 1007.1
20260505023012 23 132 4.8 12.9 0.00 0.00 0.00 73 1007.1
20260505021526 23 166 3.2 14.5 0.00 0.00 0.00 72 1007.1
20260505020010 23 170 1.6 8.0 0.00 0.00 0.00 70 1006.8
20260505014513 24 194 6.4 16.1 0.00 0.00 0.00 69 1006.9
20260505013009 24 193 4.8 12.9 0.00 0.00 0.00 67 1007.0
20260505011508 25 134 3.2 16.1 0.00 0.00 0.00 66 1007.0
20260505010007 25 124 3.2 14.5 0.00 0.00 0.00 65 1007.0
20260505004516 25 128 6.4 27.4 0.00 0.00 0.00 64 1006.9
20260505003006 26 160 6.4 14.5 0.00 0.00 0.00 64 1006.9
20260505001505 26 193 4.8 12.9 0.00 0.00 0.00 63 1006.8
20260505000004 26 124 6.4 17.7 0.00 0.00 0.00 62 1006.8
20260504234502 26 125 8.0 19.3 0.00 0.00 0.00 60 1006.8
20260504233002 27 144 9.7 19.3 0.00 0.00 0.00 60 1007.1
20260504231600 27 198 11.3 20.9 0.00 0.00 0.00 59 1007.1
20260504230101 27 136 8.0 22.5 0.00 0.00 0.00 58 1007.3
20260504224558 27 167 9.7 24.1 0.00 0.00 0.00 57 1007.4
20260504223102 28 134 11.3 24.1 0.00 0.00 0.00 56 1007.6
20260504221604 28 67 6.4 19.3 0.00 0.00 0.00 57 1007.7
20260504220117 28 213 6.4 24.1 0.00 0.00 0.00 57 1007.7
20260504214549 27 192 11.3 20.9 0.00 0.00 0.00 58 1008.0
20260504213102 27 168 8.0 19.3 0.00 0.00 0.00 58 1008.0
20260504211544 27 171 8.0 19.3 0.00 0.00 0.00 59 1008.5
20260504210043 27 163 12.9 22.5 0.00 0.00 0.00 57 1008.8
20260504204557 27 182 9.7 16.1 0.00 0.00 0.00 57 1009.1
20260504203041 27 140 8.0 22.5 0.00 0.00 0.00 58 1009.3
20260504201537 27 163 11.3 20.9 0.00 0.00 0.00 57 1009.5
20260504200041 27 134 8.0 19.3 0.00 0.00 0.00 57 1010.0
20260504194538 27 182 8.0 22.5 0.00 0.00 0.00 57 1010.2
20260504193031 27 130 8.0 25.7 0.00 0.00 0.00 59 1010.3
20260504191527 27 221 6.4 19.3 0.00 0.00 0.00 59 1010.7
20260504190025 26 132 8.0 17.7 0.00 0.00 0.00 61 1010.9
20260504184532 26 217 9.7 20.9 0.00 0.00 0.00 60 1011.0
20260504183019 26 184 8.0 20.9 0.00 0.00 0.00 62 1011.1
20260504181516 25 162 9.7 19.3 0.00 0.00 0.00 63 1011.5
20260504180013 25 184 9.7 22.5 0.00 0.00 0.00 62 1011.7
20260504174511 25 139 9.7 25.7 0.00 0.00 0.00 63 1012.1
20260504173009 25 198 11.3 25.7 0.00 0.00 0.00 63 1012.2
20260504171504 24 148 8.0 20.9 0.00 0.00 0.00 64 1012.6
20260504081552 17 166 4.8 16.1 0.00 0.00 0.00 77 1013.7